Flag Weather past 2 weeks in Malmö, Sweden

Now
46 °F

Fog.


Feels Like: 39 °F
Forecast: 42 / 47 °F
Wind: 20 mph from South

Location: Malmo / Sturup

Current Time: Nov 24, 2014 at 6:23:50 AM

Latest Report: Nov 24, 2014 at 5:50 AM


Visibility: 4 mi

Pressure: 29.92 "Hg

Humidity: 87%

Dew point: 43 °F

Location of MalmöLocation

Historic Weather in Malmö — Graph

°F

Malmö temperature yesterday

Maximum temperature yesterday: 46 °F (at 10:20 PM)
Minimum temperature yesterday: 43 °F (at 12:20 AM)
Average temperature yesterday: 44 °F

Past Weeks' High & Low Weather Summary

 TemperatureHumidityPressure
High52 °F (Nov 9, 10:50 AM)100% (Nov 9, 5:20 AM)30.36 "Hg (Nov 9, 5:20 AM)
Low39 °F (Nov 11, 4:20 AM)76% (Nov 15, 8:50 AM)29.74 "Hg (Nov 16, 5:20 PM)
Average46 °F91%30.03 "Hg
* Reported Nov 9 5:20 AM — Nov 24 5:20 AM, Malmö, Weather by CustomWeather, © 2014

Note: Actual official high and low records may vary slightly from our data, if they occured in-between our weather recording intervals... More about our weather records

Advertising

Malmö weather history for previous 24 hours

 ConditionsComfort  
Time TempWeatherWind HumidityBarometerVisibility
5:20 AM
Nov 24
46 °FLight rain. Overcast.18 mph87%29.92 "Hg4 mi
4:50 AM45 °FFog.18 mph93%29.92 "Hg2 mi
4:20 AM45 °FLight rain. Low clouds.22 mph93%29.95 "Hg3 mi
3:50 AM46 °FFog.21 mph87%29.95 "Hg3 mi
3:20 AM46 °FFog.21 mph87%29.98 "Hg3 mi
2:50 AM46 °FFog.20 mph87%29.98 "Hg3 mi
2:20 AM46 °FFog.20 mph87%30.01 "Hg3 mi
1:50 AM46 °FFog.22 mph87%30.01 "Hg3 mi
1:20 AM46 °FFog.20 mph87%30.01 "Hg3 mi
12:20 AM46 °FFog.21 mph87%30.04 "Hg3 mi
11:50 PM
Nov 23
46 °FFog.20 mph87%30.07 "Hg3 mi
11:20 PM46 °FFog.18 mph87%30.07 "Hg3 mi
10:50 PM46 °FFog.18 mph87%30.09 "Hg3 mi
10:20 PM46 °FFog.17 mph87%30.09 "Hg3 mi
9:20 PM45 °FFog.20 mph93%30.09 "Hg4 mi
8:50 PM45 °FFog.18 mph87%30.09 "Hg4 mi
8:20 PM45 °FFog.18 mph87%30.12 "Hg4 mi
7:50 PM45 °FFog.17 mph87%30.12 "Hg4 mi
7:20 PM45 °FFog.20 mph87%30.12 "Hg4 mi
6:50 PM45 °FFog.18 mph87%30.15 "Hg4 mi
6:20 PM45 °FDrizzle. Fog.17 mph87%30.15 "Hg4 mi
5:50 PM45 °FFog.17 mph87%30.15 "Hg4 mi
5:20 PM45 °FFog.16 mph87%30.15 "Hg4 mi
4:50 PM45 °FFog.17 mph87%30.15 "Hg4 mi
4:20 PM45 °FFog.15 mph87%30.18 "Hg4 mi
3:50 PM45 °FFog.15 mph87%30.18 "Hg4 mi
3:20 PM45 °FFog.14 mph87%30.18 "Hg4 mi
2:50 PM45 °FLight rain. Fog.16 mph87%30.21 "Hg4 mi
2:20 PM45 °FFog.17 mph87%30.18 "Hg4 mi
1:50 PM45 °FFog.17 mph87%30.21 "Hg5 mi
1:20 PM45 °FDrizzle. Broken clouds.15 mph87%30.24 "Hg5 mi
12:50 PM45 °FFog.15 mph87%30.24 "Hg4 mi
12:20 PM45 °FFog.15 mph87%30.24 "Hg4 mi
11:50 AM43 °FFog.14 mph93%30.24 "Hg4 mi
11:20 AM45 °FDrizzle. Mostly cloudy.14 mph81%30.27 "Hg4 mi
10:50 AM45 °FFog.13 mph81%30.27 "Hg4 mi
10:20 AM43 °FDrizzle. Fog.14 mph87%30.27 "Hg5 mi
9:50 AM43 °FFog.14 mph87%30.27 "Hg4 mi
9:20 AM45 °FFog.13 mph81%30.27 "Hg4 mi
8:50 AM43 °FFog.15 mph87%30.24 "Hg4 mi
8:20 AM43 °FFog.14 mph87%30.27 "Hg4 mi
7:50 AM43 °FOvercast.15 mph87%30.24 "HgN/A
7:20 AM43 °FOvercast.14 mph87%30.24 "HgN/A
6:50 AM43 °FOvercast.14 mph87%30.24 "HgN/A
6:20 AM43 °FOvercast.14 mph87%30.24 "HgN/A
Weather by CustomWeather, © 2014

See weather overviewHow to use our weather pages